owner,sensor,date,latitude,longitude,vertical_datum,sea_water_temperature,qcFlag 
TABS,ioos:station:wmo:42048:1,2006-10-01T00:00:00Z,27.9396,-96.8429,-2.0,28.21,11111222 
TABS,ioos:station:wmo:42048:1,2006-10-01T00:30:00Z,27.9396,-96.8429,-2.0,28.18,11111222 
TABS,ioos:station:wmo:42048:1,2006-10-01T01:00:00Z,27.9396,-96.8429,-2.0,28.16,11111222 
TABS,ioos:station:wmo:42048:1,2006-10-01T01:30:00Z,27.9396,-96.8429,-2.0,28.13,11111222 
TABS,ioos:station:wmo:42048:1,2006-10-01T02:00:00Z,27.9396,-96.8429,-2.0,28.12,11111222 
TABS,ioos:station:wmo:42048:1,2006-10-01T02:30:00Z,27.9396,-96.8429,-2.0,28.09,11111222 
TABS,ioos:station:wmo:42048:1,2006-10-01T03:00:00Z,27.9396,-96.8429,-2.0,28.07,11111222 
TABS,ioos:station:wmo:42048:1,2006-10-01T03:30:00Z,27.9396,-96.8429,-2.0,28.05,11111222 
TABS,ioos:station:wmo:42048:1,2006-10-01T04:00:00Z,27.9396,-96.8429,-2.0,28.04,11111222 
TABS,ioos:station:wmo:42048:1,2006-10-01T04:30:00Z,27.9396,-96.8429,-2.0,28.04,11111222 
TABS,ioos:station:wmo:42048:1,2006-10-01T05:00:00Z,27.9396,-96.8429,-2.0,28.02,11111222 
TABS,ioos:station:wmo:42048:1,2006-10-01T05:30:00Z,27.9396,-96.8429,-2.0,28.01,11111222 
TABS,ioos:station:wmo:42048:1,2006-10-01T06:00:00Z,27.9396,-96.8429,-2.0,28.0,11111222 
TABS,ioos:station:wmo:42048:1,2006-10-01T06:30:00Z,27.9396,-96.8429,-2.0,27.98,11111222 
TABS,ioos:station:wmo:42048:1,2006-10-01T07:00:00Z,27.9396,-96.8429,-2.0,27.98,11111222 
TABS,ioos:station:wmo:42048:1,2006-10-01T07:30:00Z,27.9396,-96.8429,-2.0,27.97,11111222 
TABS,ioos:station:wmo:42048:1,2006-10-01T08:00:00Z,27.9396,-96.8429,-2.0,27.97,11111222 
TABS,ioos:station:wmo:42048:1,2006-10-01T08:30:00Z,27.9396,-96.8429,-2.0,27.96,11111222 
TABS,ioos:station:wmo:42048:1,2006-10-01T09:00:00Z,27.9396,-96.8429,-2.0,27.95,11111222 
TABS,ioos:station:wmo:42048:1,2006-10-01T09:30:00Z,27.9396,-96.8429,-2.0,27.95,11111222 
TABS,ioos:station:wmo:42048:1,2006-10-01T10:00:00Z,27.9396,-96.8429,-2.0,27.94,11111222 
TABS,ioos:station:wmo:42048:1,2006-10-01T10:30:00Z,27.9396,-96.8429,-2.0,27.94,11111222 
TABS,ioos:station:wmo:42048:1,2006-10-01T11:00:00Z,27.9396,-96.8429,-2.0,27.92,11111222 
TABS,ioos:station:wmo:42048:1,2006-10-01T11:30:00Z,27.9396,-96.8429,-2.0,27.91,11111222 
TABS,ioos:station:wmo:42048:1,2006-10-01T12:00:00Z,27.9396,-96.8429,-2.0,27.92,11111222 
TABS,ioos:station:wmo:42048:1,2006-10-01T12:30:00Z,27.9396,-96.8429,-2.0,27.9,11111222 
TABS,ioos:station:wmo:42048:1,2006-10-01T13:00:00Z,27.9396,-96.8429,-2.0,27.9,11111222 
TABS,ioos:station:wmo:42048:1,2006-10-01T13:30:00Z,27.9396,-96.8429,-2.0,27.9,11111222 
TABS,ioos:station:wmo:42048:1,2006-10-01T14:00:00Z,27.9396,-96.8429,-2.0,27.9,11111222 
TABS,ioos:station:wmo:42048:1,2006-10-01T14:30:00Z,27.9396,-96.8429,-2.0,27.89,11111222 
TABS,ioos:station:wmo:42048:1,2006-10-01T15:00:00Z,27.9396,-96.8429,-2.0,27.9,11111222 
TABS,ioos:station:wmo:42048:1,2006-10-01T15:30:00Z,27.9396,-96.8429,-2.0,27.91,11111222 
TABS,ioos:station:wmo:42048:1,2006-10-01T16:00:00Z,27.9396,-96.8429,-2.0,27.93,11111222 
TABS,ioos:station:wmo:42048:1,2006-10-01T16:30:00Z,27.9396,-96.8429,-2.0,27.97,11111222 
TABS,ioos:station:wmo:42048:1,2006-10-01T17:00:00Z,27.9396,-96.8429,-2.0,27.99,11111222 
TABS,ioos:station:wmo:42048:1,2006-10-01T17:30:00Z,27.9396,-96.8429,-2.0,28.01,11111222 
TABS,ioos:station:wmo:42048:1,2006-10-01T18:00:00Z,27.9396,-96.8429,-2.0,28.04,11111222 
TABS,ioos:station:wmo:42048:1,2006-10-01T18:30:00Z,27.9396,-96.8429,-2.0,28.1,11111222 
TABS,ioos:station:wmo:42048:1,2006-10-01T19:00:00Z,27.9396,-96.8429,-2.0,28.15,11111222 
TABS,ioos:station:wmo:42048:1,2006-10-01T19:30:00Z,27.9396,-96.8429,-2.0,28.21,11111222 
TABS,ioos:station:wmo:42048:1,2006-10-01T20:00:00Z,27.9396,-96.8429,-2.0,28.25,11111222 
TABS,ioos:station:wmo:42048:1,2006-10-01T20:30:00Z,27.9396,-96.8429,-2.0,28.28,11111222 
TABS,ioos:station:wmo:42048:1,2006-10-01T21:00:00Z,27.9396,-96.8429,-2.0,28.27,11111222 
TABS,ioos:station:wmo:42048:1,2006-10-01T21:30:00Z,27.9396,-96.8429,-2.0,28.23,11111222 
TABS,ioos:station:wmo:42048:1,2006-10-01T22:00:00Z,27.9396,-96.8429,-2.0,28.18,11111222 
TABS,ioos:station:wmo:42048:1,2006-10-01T22:30:00Z,27.9396,-96.8429,-2.0,28.15,11111222 
TABS,ioos:station:wmo:42048:1,2006-10-01T23:00:00Z,27.9396,-96.8429,-2.0,28.13,11111222 
TABS,ioos:station:wmo:42048:1,2006-10-01T23:30:00Z,27.9396,-96.8429,-2.0,28.08,11111222 
TABS,ioos:station:wmo:42048:1,2006-10-02T00:00:00Z,27.9396,-96.8429,-2.0,28.07,11111222 
TABS,ioos:station:wmo:42048:1,2006-10-02T00:30:00Z,27.9396,-96.8429,-2.0,28.08,11111222 
TABS,ioos:station:wmo:42048:1,2006-10-02T01:00:00Z,27.9396,-96.8429,-2.0,28.07,11111222 
TABS,ioos:station:wmo:42048:1,2006-10-02T01:30:00Z,27.9396,-96.8429,-2.0,28.07,11111222 
TABS,ioos:station:wmo:42048:1,2006-10-02T02:00:00Z,27.9396,-96.8429,-2.0,28.06,11111222 
TABS,ioos:station:wmo:42048:1,2006-10-02T02:30:00Z,27.9396,-96.8429,-2.0,28.07,11111222 
TABS,ioos:station:wmo:42048:1,2006-10-02T03:00:00Z,27.9396,-96.8429,-2.0,28.08,11111222 
TABS,ioos:station:wmo:42048:1,2006-10-02T03:30:00Z,27.9396,-96.8429,-2.0,28.07,11111222 
TABS,ioos:station:wmo:42048:1,2006-10-02T04:00:00Z,27.9396,-96.8429,-2.0,28.07,11111222 
TABS,ioos:station:wmo:42048:1,2006-10-02T04:30:00Z,27.9396,-96.8429,-2.0,28.06,11111222 
TABS,ioos:station:wmo:42048:1,2006-10-02T05:00:00Z,27.9396,-96.8429,-2.0,28.05,11111222 
TABS,ioos:station:wmo:42048:1,2006-10-02T05:30:00Z,27.9396,-96.8429,-2.0,28.04,11111222 
TABS,ioos:station:wmo:42048:1,2006-10-02T06:00:00Z,27.9396,-96.8429,-2.0,28.03,11111222 
TABS,ioos:station:wmo:42048:1,2006-10-02T06:30:00Z,27.9396,-96.8429,-2.0,28.01,11111222 
TABS,ioos:station:wmo:42048:1,2006-10-02T07:00:00Z,27.9396,-96.8429,-2.0,28.01,11111222 
TABS,ioos:station:wmo:42048:1,2006-10-02T07:30:00Z,27.9396,-96.8429,-2.0,27.99,11111222 
TABS,ioos:station:wmo:42048:1,2006-10-02T08:00:00Z,27.9396,-96.8429,-2.0,27.98,11111222 
TABS,ioos:station:wmo:42048:1,2006-10-02T08:30:00Z,27.9396,-96.8429,-2.0,27.97,11111222 
TABS,ioos:station:wmo:42048:1,2006-10-02T09:00:00Z,27.9396,-96.8429,-2.0,27.97,11111222 
TABS,ioos:station:wmo:42048:1,2006-10-02T09:30:00Z,27.9396,-96.8429,-2.0,27.96,11111222 
TABS,ioos:station:wmo:42048:1,2006-10-02T10:00:00Z,27.9396,-96.8429,-2.0,27.96,11111222 
TABS,ioos:station:wmo:42048:1,2006-10-02T10:30:00Z,27.9396,-96.8429,-2.0,27.96,11111222 
TABS,ioos:station:wmo:42048:1,2006-10-02T11:00:00Z,27.9396,-96.8429,-2.0,27.95,11111222 
TABS,ioos:station:wmo:42048:1,2006-10-02T11:30:00Z,27.9396,-96.8429,-2.0,27.95,11111222 
TABS,ioos:station:wmo:42048:1,2006-10-02T12:00:00Z,27.9396,-96.8429,-2.0,27.94,11111222 
TABS,ioos:station:wmo:42048:1,2006-10-02T12:30:00Z,27.9396,-96.8429,-2.0,27.93,11111222 
TABS,ioos:station:wmo:42048:1,2006-10-02T13:00:00Z,27.9396,-96.8429,-2.0,27.92,11111222 
TABS,ioos:station:wmo:42048:1,2006-10-02T13:30:00Z,27.9396,-96.8429,-2.0,27.93,11111222 
TABS,ioos:station:wmo:42048:1,2006-10-02T14:00:00Z,27.9396,-96.8429,-2.0,27.92,11111222 
TABS,ioos:station:wmo:42048:1,2006-10-02T14:30:00Z,27.9396,-96.8429,-2.0,27.93,11111222 
TABS,ioos:station:wmo:42048:1,2006-10-02T15:00:00Z,27.9396,-96.8429,-2.0,27.93,11111222 
TABS,ioos:station:wmo:42048:1,2006-10-02T15:30:00Z,27.9396,-96.8429,-2.0,27.93,11111222 
TABS,ioos:station:wmo:42048:1,2006-10-02T16:00:00Z,27.9396,-96.8429,-2.0,27.92,11111222 
TABS,ioos:station:wmo:42048:1,2006-10-02T16:30:00Z,27.9396,-96.8429,-2.0,27.93,11111222 
TABS,ioos:station:wmo:42048:1,2006-10-02T17:00:00Z,27.9396,-96.8429,-2.0,27.95,11111222 
TABS,ioos:station:wmo:42048:1,2006-10-02T17:30:00Z,27.9396,-96.8429,-2.0,27.95,11111222 
TABS,ioos:station:wmo:42048:1,2006-10-02T18:00:00Z,27.9396,-96.8429,-2.0,27.99,11111222 
TABS,ioos:station:wmo:42048:1,2006-10-02T18:30:00Z,27.9396,-96.8429,-2.0,28.02,11111222 
TABS,ioos:station:wmo:42048:1,2006-10-02T19:00:00Z,27.9396,-96.8429,-2.0,28.07,11111222 
TABS,ioos:station:wmo:42048:1,2006-10-02T19:30:00Z,27.9396,-96.8429,-2.0,28.11,11111222 
TABS,ioos:station:wmo:42048:1,2006-10-02T20:00:00Z,27.9396,-96.8429,-2.0,28.14,11111222 
TABS,ioos:station:wmo:42048:1,2006-10-02T20:30:00Z,27.9396,-96.8429,-2.0,28.15,11111222 
TABS,ioos:station:wmo:42048:1,2006-10-02T21:00:00Z,27.9396,-96.8429,-2.0,28.16,11111222 
TABS,ioos:station:wmo:42048:1,2006-10-02T21:30:00Z,27.9396,-96.8429,-2.0,28.12,11111222 
TABS,ioos:station:wmo:42048:1,2006-10-02T22:00:00Z,27.9396,-96.8429,-2.0,28.09,11111222 
TABS,ioos:station:wmo:42048:1,2006-10-02T22:30:00Z,27.9396,-96.8429,-2.0,28.07,11111222 
TABS,ioos:station:wmo:42048:1,2006-10-02T23:00:00Z,27.9396,-96.8429,-2.0,28.03,11111222 
TABS,ioos:station:wmo:42048:1,2006-10-02T23:30:00Z,27.9396,-96.8429,-2.0,28.01,11111222 
TABS,ioos:station:wmo:42048:1,2006-10-03T00:00:00Z,27.9396,-96.8429,-2.0,27.99,11111222 
TABS,ioos:station:wmo:42048:1,2006-10-03T00:30:00Z,27.9396,-96.8429,-2.0,27.95,11111222 
TABS,ioos:station:wmo:42048:1,2006-10-03T01:00:00Z,27.9396,-96.8429,-2.0,27.93,11111222 
TABS,ioos:station:wmo:42048:1,2006-10-03T01:30:00Z,27.9396,-96.8429,-2.0,27.92,11111222 
TABS,ioos:station:wmo:42048:1,2006-10-03T02:00:00Z,27.9396,-96.8429,-2.0,27.91,11111222 
TABS,ioos:station:wmo:42048:1,2006-10-03T02:30:00Z,27.9396,-96.8429,-2.0,27.91,11111222 
TABS,ioos:station:wmo:42048:1,2006-10-03T03:00:00Z,27.9396,-96.8429,-2.0,27.91,11111222 
TABS,ioos:station:wmo:42048:1,2006-10-03T03:30:00Z,27.9396,-96.8429,-2.0,27.91,11111222 
TABS,ioos:station:wmo:42048:1,2006-10-03T04:00:00Z,27.9396,-96.8429,-2.0,27.9,11111222 
TABS,ioos:station:wmo:42048:1,2006-10-03T04:30:00Z,27.9396,-96.8429,-2.0,27.91,11111222 
TABS,ioos:station:wmo:42048:1,2006-10-03T05:00:00Z,27.9396,-96.8429,-2.0,27.91,11111222 
TABS,ioos:station:wmo:42048:1,2006-10-03T05:30:00Z,27.9396,-96.8429,-2.0,27.91,11111222 
TABS,ioos:station:wmo:42048:1,2006-10-03T06:00:00Z,27.9396,-96.8429,-2.0,27.95,11111222 
TABS,ioos:station:wmo:42048:1,2006-10-03T06:30:00Z,27.9396,-96.8429,-2.0,28.02,11111222 
TABS,ioos:station:wmo:42048:1,2006-10-03T07:00:00Z,27.9396,-96.8429,-2.0,28.03,11111222 
TABS,ioos:station:wmo:42048:1,2006-10-03T07:30:00Z,27.9396,-96.8429,-2.0,28.02,11111222 
TABS,ioos:station:wmo:42048:1,2006-10-03T08:00:00Z,27.9396,-96.8429,-2.0,28.02,11111222 
TABS,ioos:station:wmo:42048:1,2006-10-03T08:30:00Z,27.9396,-96.8429,-2.0,28.01,11111222 
TABS,ioos:station:wmo:42048:1,2006-10-03T09:00:00Z,27.9396,-96.8429,-2.0,27.99,11111222 
TABS,ioos:station:wmo:42048:1,2006-10-03T09:30:00Z,27.9396,-96.8429,-2.0,27.96,11111222 
TABS,ioos:station:wmo:42048:1,2006-10-03T10:00:00Z,27.9396,-96.8429,-2.0,27.94,11111222 
TABS,ioos:station:wmo:42048:1,2006-10-03T10:30:00Z,27.9396,-96.8429,-2.0,27.94,11111222 
TABS,ioos:station:wmo:42048:1,2006-10-03T11:00:00Z,27.9396,-96.8429,-2.0,27.95,11111222 
TABS,ioos:station:wmo:42048:1,2006-10-03T11:30:00Z,27.9396,-96.8429,-2.0,27.96,11111222 
TABS,ioos:station:wmo:42048:1,2006-10-03T12:00:00Z,27.9396,-96.8429,-2.0,27.95,11111222 
TABS,ioos:station:wmo:42048:1,2006-10-03T12:30:00Z,27.9396,-96.8429,-2.0,27.95,11111222 
TABS,ioos:station:wmo:42048:1,2006-10-03T13:00:00Z,27.9396,-96.8429,-2.0,27.95,11111222 
TABS,ioos:station:wmo:42048:1,2006-10-03T13:30:00Z,27.9396,-96.8429,-2.0,27.96,11111222 
TABS,ioos:station:wmo:42048:1,2006-10-03T14:00:00Z,27.9396,-96.8429,-2.0,27.96,11111222 
TABS,ioos:station:wmo:42048:1,2006-10-03T14:30:00Z,27.9396,-96.8429,-2.0,27.95,11111222 
TABS,ioos:station:wmo:42048:1,2006-10-03T15:00:00Z,27.9396,-96.8429,-2.0,27.94,11111222 
TABS,ioos:station:wmo:42048:1,2006-10-03T15:30:00Z,27.9396,-96.8429,-2.0,27.95,11111222 
TABS,ioos:station:wmo:42048:1,2006-10-03T16:00:00Z,27.9396,-96.8429,-2.0,27.97,11111222 
TABS,ioos:station:wmo:42048:1,2006-10-03T16:30:00Z,27.9396,-96.8429,-2.0,28.02,11111222 
TABS,ioos:station:wmo:42048:1,2006-10-03T17:00:00Z,27.9396,-96.8429,-2.0,28.04,11111222 
TABS,ioos:station:wmo:42048:1,2006-10-03T17:30:00Z,27.9396,-96.8429,-2.0,28.09,11111222 
TABS,ioos:station:wmo:42048:1,2006-10-03T18:00:00Z,27.9396,-96.8429,-2.0,28.14,11111222 
TABS,ioos:station:wmo:42048:1,2006-10-03T19:00:00Z,27.9396,-96.8429,-2.0,28.21,11111222 
TABS,ioos:station:wmo:42048:1,2006-10-03T19:30:00Z,27.9396,-96.8429,-2.0,28.23,11111222 
TABS,ioos:station:wmo:42048:1,2006-10-03T20:00:00Z,27.9396,-96.8429,-2.0,28.28,11111222 
TABS,ioos:station:wmo:42048:1,2006-10-03T20:30:00Z,27.9396,-96.8429,-2.0,28.26,11111222 
TABS,ioos:station:wmo:42048:1,2006-10-03T21:00:00Z,27.9396,-96.8429,-2.0,28.22,11111222 
TABS,ioos:station:wmo:42048:1,2006-10-03T21:30:00Z,27.9396,-96.8429,-2.0,28.19,11111222 
TABS,ioos:station:wmo:42048:1,2006-10-03T22:00:00Z,27.9396,-96.8429,-2.0,28.18,11111222 
TABS,ioos:station:wmo:42048:1,2006-10-03T22:30:00Z,27.9396,-96.8429,-2.0,28.18,11111222 
TABS,ioos:station:wmo:42048:1,2006-10-03T23:00:00Z,27.9396,-96.8429,-2.0,28.17,11111222 
TABS,ioos:station:wmo:42048:1,2006-10-03T23:30:00Z,27.9396,-96.8429,-2.0,28.15,11111222 
TABS,ioos:station:wmo:42048:1,2006-10-04T00:00:00Z,27.9396,-96.8429,-2.0,28.2,11111222 
TABS,ioos:station:wmo:42048:1,2006-10-04T00:30:00Z,27.9396,-96.8429,-2.0,28.0,11111222 
TABS,ioos:station:wmo:42048:1,2006-10-04T01:00:00Z,27.9396,-96.8429,-2.0,28.0,11111222 
TABS,ioos:station:wmo:42048:1,2006-10-04T01:30:00Z,27.9396,-96.8429,-2.0,28.0,11111222 
TABS,ioos:station:wmo:42048:1,2006-10-04T02:00:00Z,27.9396,-96.8429,-2.0,28.0,11111222 
TABS,ioos:station:wmo:42048:1,2006-10-04T02:30:00Z,27.9396,-96.8429,-2.0,28.0,11111222 
TABS,ioos:station:wmo:42048:1,2006-10-04T03:00:00Z,27.9396,-96.8429,-2.0,28.0,11111222 
TABS,ioos:station:wmo:42048:1,2006-10-04T03:30:00Z,27.9396,-96.8429,-2.0,28.0,11111222 
TABS,ioos:station:wmo:42048:1,2006-10-04T04:00:00Z,27.9396,-96.8429,-2.0,28.0,11111222 
TABS,ioos:station:wmo:42048:1,2006-10-04T04:30:00Z,27.9396,-96.8429,-2.0,28.0,11111222 
TABS,ioos:station:wmo:42048:1,2006-10-04T05:00:00Z,27.9396,-96.8429,-2.0,28.0,11111222 
TABS,ioos:station:wmo:42048:1,2006-10-04T05:30:00Z,27.9396,-96.8429,-2.0,28.0,11111222 
TABS,ioos:station:wmo:42048:1,2006-10-04T06:00:00Z,27.9396,-96.8429,-2.0,28.0,11111222 
TABS,ioos:station:wmo:42048:1,2006-10-04T06:30:00Z,27.9396,-96.8429,-2.0,28.0,11111222 
TABS,ioos:station:wmo:42048:1,2006-10-04T07:00:00Z,27.9396,-96.8429,-2.0,28.0,11111222 
TABS,ioos:station:wmo:42048:1,2006-10-04T07:30:00Z,27.9396,-96.8429,-2.0,28.0,11111222 
TABS,ioos:station:wmo:42048:1,2006-10-04T08:00:00Z,27.9396,-96.8429,-2.0,28.0,11111222 
TABS,ioos:station:wmo:42048:1,2006-10-04T08:30:00Z,27.9396,-96.8429,-2.0,28.0,11111222 
TABS,ioos:station:wmo:42048:1,2006-10-04T09:00:00Z,27.9396,-96.8429,-2.0,28.0,11111222 
TABS,ioos:station:wmo:42048:1,2006-10-04T09:30:00Z,27.9396,-96.8429,-2.0,28.0,11111222 
TABS,ioos:station:wmo:42048:1,2006-10-04T10:00:00Z,27.9396,-96.8429,-2.0,28.0,11111222 
TABS,ioos:station:wmo:42048:1,2006-10-04T10:30:00Z,27.9396,-96.8429,-2.0,28.0,11111222 
TABS,ioos:station:wmo:42048:1,2006-10-04T11:00:00Z,27.9396,-96.8429,-2.0,28.0,11111222 
TABS,ioos:station:wmo:42048:1,2006-10-04T11:30:00Z,27.9396,-96.8429,-2.0,28.0,11111222 
TABS,ioos:station:wmo:42048:1,2006-10-04T12:00:00Z,27.9396,-96.8429,-2.0,28.0,11111222 
TABS,ioos:station:wmo:42048:1,2006-10-04T12:30:00Z,27.9396,-96.8429,-2.0,27.8,11111222 
TABS,ioos:station:wmo:42048:1,2006-10-04T13:00:00Z,27.9396,-96.8429,-2.0,27.8,11111222 
TABS,ioos:station:wmo:42048:1,2006-10-04T13:30:00Z,27.9396,-96.8429,-2.0,27.8,11111222 
TABS,ioos:station:wmo:42048:1,2006-10-04T14:00:00Z,27.9396,-96.8429,-2.0,27.8,11111222 
TABS,ioos:station:wmo:42048:1,2006-10-04T14:30:00Z,27.9396,-96.8429,-2.0,27.8,11111222 
TABS,ioos:station:wmo:42048:1,2006-10-04T15:00:00Z,27.9396,-96.8429,-2.0,26.8,11111222 
TABS,ioos:station:wmo:42048:1,2006-10-04T15:30:00Z,27.9396,-96.8429,-2.0,27.8,11111222 
TABS,ioos:station:wmo:42048:1,2006-10-04T16:00:00Z,27.9396,-96.8429,-2.0,28.0,11111222 
TABS,ioos:station:wmo:42048:1,2006-10-04T16:30:00Z,27.9396,-96.8429,-2.0,28.0,11111222 
TABS,ioos:station:wmo:42048:1,2006-10-04T17:00:00Z,27.9396,-96.8429,-2.0,28.0,11111222 
TABS,ioos:station:wmo:42048:1,2006-10-04T17:30:00Z,27.9396,-96.8429,-2.0,28.0,11111222 
TABS,ioos:station:wmo:42048:1,2006-10-04T18:00:00Z,27.9396,-96.8429,-2.0,28.0,11111222 
TABS,ioos:station:wmo:42048:1,2006-10-04T18:30:00Z,27.9396,-96.8429,-2.0,28.0,11111222 
TABS,ioos:station:wmo:42048:1,2006-10-04T19:00:00Z,27.9396,-96.8429,-2.0,28.0,11111222 
TABS,ioos:station:wmo:42048:1,2006-10-04T19:30:00Z,27.9396,-96.8429,-2.0,28.2,11111222 
TABS,ioos:station:wmo:42048:1,2006-10-04T20:00:00Z,27.9396,-96.8429,-2.0,28.2,11111222 
TABS,ioos:station:wmo:42048:1,2006-10-04T20:30:00Z,27.9396,-96.8429,-2.0,28.2,11111222 
TABS,ioos:station:wmo:42048:1,2006-10-04T21:00:00Z,27.9396,-96.8429,-2.0,28.2,11111222 
TABS,ioos:station:wmo:42048:1,2006-10-04T21:30:00Z,27.9396,-96.8429,-2.0,28.2,11111222 
TABS,ioos:station:wmo:42048:1,2006-10-04T22:00:00Z,27.9396,-96.8429,-2.0,28.2,11111222 
TABS,ioos:station:wmo:42048:1,2006-10-04T22:30:00Z,27.9396,-96.8429,-2.0,28.2,11111222 
TABS,ioos:station:wmo:42048:1,2006-10-04T23:00:00Z,27.9396,-96.8429,-2.0,28.2,11111222 
TABS,ioos:station:wmo:42048:1,2006-10-04T23:30:00Z,27.9396,-96.8429,-2.0,28.2,11111222 
TABS,ioos:station:wmo:42048:1,2006-10-05T00:00:00Z,27.9396,-96.8429,-2.0,28.2,11111222 
TABS,ioos:station:wmo:42048:1,2006-10-05T00:30:00Z,27.9396,-96.8429,-2.0,28.2,11111222 
TABS,ioos:station:wmo:42048:1,2006-10-05T01:00:00Z,27.9396,-96.8429,-2.0,28.2,11111222 
TABS,ioos:station:wmo:42048:1,2006-10-05T01:30:00Z,27.9396,-96.8429,-2.0,28.0,11111222 
TABS,ioos:station:wmo:42048:1,2006-10-05T02:00:00Z,27.9396,-96.8429,-2.0,28.0,11111222 
TABS,ioos:station:wmo:42048:1,2006-10-05T02:30:00Z,27.9396,-96.8429,-2.0,28.0,11111222 
TABS,ioos:station:wmo:42048:1,2006-10-05T03:00:00Z,27.9396,-96.8429,-2.0,28.0,11111222 
TABS,ioos:station:wmo:42048:1,2006-10-05T03:30:00Z,27.9396,-96.8429,-2.0,28.0,11111222 
TABS,ioos:station:wmo:42048:1,2006-10-05T04:00:00Z,27.9396,-96.8429,-2.0,27.97,11111222 
TABS,ioos:station:wmo:42048:1,2006-10-05T04:30:00Z,27.9396,-96.8429,-2.0,27.96,11111222 
TABS,ioos:station:wmo:42048:1,2006-10-05T05:00:00Z,27.9396,-96.8429,-2.0,27.95,11111222 
TABS,ioos:station:wmo:42048:1,2006-10-05T05:30:00Z,27.9396,-96.8429,-2.0,27.95,11111222 
TABS,ioos:station:wmo:42048:1,2006-10-05T06:00:00Z,27.9396,-96.8429,-2.0,27.94,11111222 
TABS,ioos:station:wmo:42048:1,2006-10-05T06:30:00Z,27.9396,-96.8429,-2.0,27.93,11111222 
TABS,ioos:station:wmo:42048:1,2006-10-05T07:00:00Z,27.9396,-96.8429,-2.0,27.92,11111222 
TABS,ioos:station:wmo:42048:1,2006-10-05T07:30:00Z,27.9396,-96.8429,-2.0,27.91,11111222 
TABS,ioos:station:wmo:42048:1,2006-10-05T08:00:00Z,27.9396,-96.8429,-2.0,27.91,11111222 
TABS,ioos:station:wmo:42048:1,2006-10-05T08:30:00Z,27.9396,-96.8429,-2.0,27.89,11111222 
TABS,ioos:station:wmo:42048:1,2006-10-05T09:00:00Z,27.9396,-96.8429,-2.0,27.89,11111222 
TABS,ioos:station:wmo:42048:1,2006-10-07T20:30:00Z,27.9396,-96.8429,-2.0,27.99,11111222 
TABS,ioos:station:wmo:42048:1,2006-10-07T21:00:00Z,27.9396,-96.8429,-2.0,28.03,11111222 
TABS,ioos:station:wmo:42048:1,2006-10-07T21:30:00Z,27.9396,-96.8429,-2.0,28.0,11111222 
TABS,ioos:station:wmo:42048:1,2006-10-07T22:00:00Z,27.9396,-96.8429,-2.0,27.97,11111222 
TABS,ioos:station:wmo:42048:1,2006-10-07T22:30:00Z,27.9396,-96.8429,-2.0,27.96,11111222 
TABS,ioos:station:wmo:42048:1,2006-10-07T23:00:00Z,27.9396,-96.8429,-2.0,27.96,11111222 
TABS,ioos:station:wmo:42048:1,2006-10-07T23:30:00Z,27.9396,-96.8429,-2.0,27.94,11111222 
TABS,ioos:station:wmo:42048:1,2006-10-08T00:00:00Z,27.9396,-96.8429,-2.0,27.91,11111222 
TABS,ioos:station:wmo:42048:1,2006-10-08T00:30:00Z,27.9396,-96.8429,-2.0,27.92,11111222 
TABS,ioos:station:wmo:42048:1,2006-10-08T01:00:00Z,27.9396,-96.8429,-2.0,27.9,11111222 
TABS,ioos:station:wmo:42048:1,2006-10-08T01:30:00Z,27.9396,-96.8429,-2.0,27.87,11111222 
TABS,ioos:station:wmo:42048:1,2006-10-08T02:00:00Z,27.9396,-96.8429,-2.0,27.84,11111222 
TABS,ioos:station:wmo:42048:1,2006-10-08T02:30:00Z,27.9396,-96.8429,-2.0,27.82,11111222 
TABS,ioos:station:wmo:42048:1,2006-10-08T03:00:00Z,27.9396,-96.8429,-2.0,27.81,11111222 
TABS,ioos:station:wmo:42048:1,2006-10-08T03:30:00Z,27.9396,-96.8429,-2.0,27.8,11111222 
TABS,ioos:station:wmo:42048:1,2006-10-08T04:00:00Z,27.9396,-96.8429,-2.0,27.79,11111222 
TABS,ioos:station:wmo:42048:1,2006-10-08T04:30:00Z,27.9396,-96.8429,-2.0,27.78,11111222 
TABS,ioos:station:wmo:42048:1,2006-10-08T05:00:00Z,27.9396,-96.8429,-2.0,27.78,11111222 
TABS,ioos:station:wmo:42048:1,2006-10-08T05:30:00Z,27.9396,-96.8429,-2.0,27.78,11111222 
TABS,ioos:station:wmo:42048:1,2006-10-08T06:00:00Z,27.9396,-96.8429,-2.0,27.77,11111222 
TABS,ioos:station:wmo:42048:1,2006-10-08T06:30:00Z,27.9396,-96.8429,-2.0,27.77,11111222 
TABS,ioos:station:wmo:42048:1,2006-10-08T07:00:00Z,27.9396,-96.8429,-2.0,27.76,11111222 
TABS,ioos:station:wmo:42048:1,2006-10-08T07:30:00Z,27.9396,-96.8429,-2.0,27.74,11111222 
TABS,ioos:station:wmo:42048:1,2006-10-08T08:00:00Z,27.9396,-96.8429,-2.0,27.74,11111222 
TABS,ioos:station:wmo:42048:1,2006-10-08T08:30:00Z,27.9396,-96.8429,-2.0,27.72,11111222 
TABS,ioos:station:wmo:42048:1,2006-10-08T09:00:00Z,27.9396,-96.8429,-2.0,27.71,11111222 
TABS,ioos:station:wmo:42048:1,2006-10-08T09:30:00Z,27.9396,-96.8429,-2.0,27.71,11111222 
TABS,ioos:station:wmo:42048:1,2006-10-08T10:00:00Z,27.9396,-96.8429,-2.0,27.71,11111222 
TABS,ioos:station:wmo:42048:1,2006-10-08T10:30:00Z,27.9396,-96.8429,-2.0,27.71,11111222 
TABS,ioos:station:wmo:42048:1,2006-10-08T11:00:00Z,27.9396,-96.8429,-2.0,27.69,11111222 
TABS,ioos:station:wmo:42048:1,2006-10-08T11:30:00Z,27.9396,-96.8429,-2.0,27.68,11111222 
TABS,ioos:station:wmo:42048:1,2006-10-08T12:00:00Z,27.9396,-96.8429,-2.0,27.68,11111222 
TABS,ioos:station:wmo:42048:1,2006-10-08T12:30:00Z,27.9396,-96.8429,-2.0,27.67,11111222 
TABS,ioos:station:wmo:42048:1,2006-10-08T13:00:00Z,27.9396,-96.8429,-2.0,27.66,11111222 
TABS,ioos:station:wmo:42048:1,2006-10-08T13:30:00Z,27.9396,-96.8429,-2.0,27.64,11111222 
TABS,ioos:station:wmo:42048:1,2006-10-08T14:00:00Z,27.9396,-96.8429,-2.0,27.64,11111222 
TABS,ioos:station:wmo:42048:1,2006-10-08T14:30:00Z,27.9396,-96.8429,-2.0,27.64,11111222 
TABS,ioos:station:wmo:42048:1,2006-10-08T15:00:00Z,27.9396,-96.8429,-2.0,27.65,11111222 
TABS,ioos:station:wmo:42048:1,2006-10-08T15:30:00Z,27.9396,-96.8429,-2.0,27.65,11111222 
TABS,ioos:station:wmo:42048:1,2006-10-08T16:00:00Z,27.9396,-96.8429,-2.0,27.66,11111222 
TABS,ioos:station:wmo:42048:1,2006-10-08T16:30:00Z,27.9396,-96.8429,-2.0,27.65,11111222 
TABS,ioos:station:wmo:42048:1,2006-10-08T17:00:00Z,27.9396,-96.8429,-2.0,27.66,11111222 
TABS,ioos:station:wmo:42048:1,2006-10-08T17:30:00Z,27.9396,-96.8429,-2.0,27.68,11111222 
TABS,ioos:station:wmo:42048:1,2006-10-08T18:00:00Z,27.9396,-96.8429,-2.0,27.69,11111222 
TABS,ioos:station:wmo:42048:1,2006-10-08T18:30:00Z,27.9396,-96.8429,-2.0,27.71,11111222 
TABS,ioos:station:wmo:42048:1,2006-10-08T19:00:00Z,27.9396,-96.8429,-2.0,27.73,11111222 
TABS,ioos:station:wmo:42048:1,2006-10-08T19:30:00Z,27.9396,-96.8429,-2.0,27.78,11111222 
TABS,ioos:station:wmo:42048:1,2006-10-08T20:00:00Z,27.9396,-96.8429,-2.0,27.81,11111222 
TABS,ioos:station:wmo:42048:1,2006-10-08T20:30:00Z,27.9396,-96.8429,-2.0,27.82,11111222 
TABS,ioos:station:wmo:42048:1,2006-10-08T21:00:00Z,27.9396,-96.8429,-2.0,27.86,11111222 
TABS,ioos:station:wmo:42048:1,2006-10-08T21:30:00Z,27.9396,-96.8429,-2.0,27.84,11111222 
TABS,ioos:station:wmo:42048:1,2006-10-08T22:00:00Z,27.9396,-96.8429,-2.0,27.83,11111222 
TABS,ioos:station:wmo:42048:1,2006-10-08T22:30:00Z,27.9396,-96.8429,-2.0,27.78,11111222 
TABS,ioos:station:wmo:42048:1,2006-10-08T23:00:00Z,27.9396,-96.8429,-2.0,27.81,11111222 
TABS,ioos:station:wmo:42048:1,2006-10-08T23:30:00Z,27.9396,-96.8429,-2.0,27.8,11111222 
TABS,ioos:station:wmo:42048:1,2006-10-09T00:00:00Z,27.9396,-96.8429,-2.0,27.79,11111222 
TABS,ioos:station:wmo:42048:1,2006-10-09T00:30:00Z,27.9396,-96.8429,-2.0,27.8,11111222 
TABS,ioos:station:wmo:42048:1,2006-10-09T01:00:00Z,27.9396,-96.8429,-2.0,27.8,11111222 
TABS,ioos:station:wmo:42048:1,2006-10-09T01:30:00Z,27.9396,-96.8429,-2.0,27.8,11111222 